Weather History for KFSE - December, 2011

Change the Weather History Date:

Tuesday, December 6, 2011

  Actual Average Record
Temperature  
Mean Temperature 10 °F -  
Max Temperature 23 °F 24 °F 41 °F (1963)
Min Temperature -2 °F 3 °F -25 °F (1972)
Degree Days  
Heating Degree Days 54    
Moisture  
Dew Point 3 °F    
Average Humidity 69    
Maximum Humidity 92    
Minimum Humidity 50    
Precipitation  
Precipitation 0.00 in - - ()
Sea Level Pressure  
Sea Level Pressure 30.05 in    
Wind  
Wind Speed 15 mph (South)    
Max Wind Speed 30 mph    
Max Gust Speed 37 mph    
Visibility 10 miles    
Events      
Averages and records for this station are not official NWS values.
T = Trace of Precipitation, MM = Missing Value Source: NWS Daily Summary

Daily Weather History Graph

Daily Weather History Graph

Search for Another Location

Airport or City:

Trip Planner

Search our weather history database for the weather conditions in past years. The results will help you decide how hot, cold, wet, or windy it might be!

Date:

Astronomy

Dec. 06, 2011 Rise Set
Actual Time 7:55 AM CST 4:32 PM CST
Civil Twilight 7:20 AM CST 5:07 PM CST
Nautical Twilight 6:41 AM CST 5:46 PM CST
Astronomical Twilight 6:04 AM CST 6:23 PM CST
Moon 2:08 PM CST (12/6) 4:05 AM CST (12/6)
Length of Visible Light 9h 47m
Length of Day
8h 36m
Waxing Gibbous, 87% of the Moon is Illuminated
Dec 6
Waxing Gibbous
Dec 10
Full
Dec 17
Last Quarter
Dec 24
New
Jan 1
First Quarter

Hourly Weather History & Observations

Time (CST) Temp. Windchill Dew Point Humidity Pressure Visibility Wind Dir Wind Speed Gust Speed Precip Events Conditions
12:15 AM -2.2 °F - -7.6 °F 78% 30.38 in 10.0 mi Calm Calm - N/A   Clear
12:35 AM -2.2 °F -16.8 °F -5.8 °F 85% 30.38 in 10.0 mi South 8.1 mph - N/A   Mostly Cloudy
12:55 AM -0.4 °F -14.7 °F -4.0 °F 85% 30.36 in 10.0 mi South 8.1 mph - N/A   Overcast
1:15 AM 1.4 °F -13.5 °F -2.2 °F 85% 30.35 in 10.0 mi South 9.2 mph - N/A   Overcast
1:35 AM 3.2 °F -11.3 °F -0.4 °F 85% 30.35 in 10.0 mi SSW 9.2 mph - N/A   Overcast
2:15 AM 1.4 °F -12.5 °F -2.2 °F 85% 30.34 in 10.0 mi South 8.1 mph - N/A   Clear
2:35 AM 1.4 °F -12.5 °F -2.2 °F 85% 30.33 in 10.0 mi South 8.1 mph - N/A   Clear
2:55 AM 1.4 °F -13.5 °F -2.2 °F 85% 30.32 in 10.0 mi South 9.2 mph - N/A   Clear
3:15 AM -0.4 °F -15.7 °F -2.2 °F 92% 30.31 in 10.0 mi South 9.2 mph - N/A   Clear
3:35 AM 1.4 °F -15.3 °F -2.2 °F 85% 30.30 in 10.0 mi South 11.5 mph - N/A   Clear
3:55 AM 1.4 °F -16.1 °F -0.4 °F 92% 30.29 in 10.0 mi South 12.7 mph - N/A   Clear
4:15 AM 3.2 °F -13.9 °F -0.4 °F 85% 30.28 in 10.0 mi South 12.7 mph - N/A   Clear
4:34 AM 3.2 °F -14.6 °F -0.4 °F 85% 30.27 in 10.0 mi South 13.8 mph - N/A   Mostly Cloudy
4:55 AM 3.2 °F -15.9 °F -0.4 °F 85% 30.26 in 10.0 mi South 16.1 mph - N/A   Overcast
5:15 AM 3.2 °F -15.3 °F 1.4 °F 92% 30.25 in 10.0 mi South 15.0 mph 19.6 mph N/A   Overcast
5:35 AM 3.2 °F -13.9 °F -0.4 °F 85% 30.25 in 10.0 mi South 12.7 mph - N/A   Mostly Cloudy
5:55 AM 3.2 °F -16.5 °F -0.4 °F 85% 30.23 in 10.0 mi South 17.3 mph 21.9 mph N/A   Clear
6:15 AM 3.2 °F -16.5 °F -0.4 °F 85% 30.22 in 10.0 mi South 17.3 mph - N/A   Clear
6:34 AM 3.2 °F -15.9 °F -0.4 °F 85% 30.21 in 10.0 mi South 16.1 mph - N/A   Clear
6:55 AM 3.2 °F -16.5 °F -0.4 °F 85% 30.20 in 10.0 mi South 17.3 mph 23.0 mph N/A   Clear
7:15 AM 3.2 °F -17.6 °F -0.4 °F 85% 30.19 in 10.0 mi South 19.6 mph - N/A   Clear
7:56 AM 3.2 °F -17.1 °F 1.4 °F 92% 30.16 in 10.0 mi South 18.4 mph 24.2 mph N/A   Clear
8:35 AM 5.0 °F -14.7 °F 1.4 °F 85% 30.15 in 10.0 mi South 18.4 mph 25.3 mph N/A   Clear
8:55 AM 6.8 °F -12.9 °F 1.4 °F 79% 30.13 in 10.0 mi South 19.6 mph 26.5 mph N/A   Clear
9:15 AM 8.6 °F -11.4 °F 1.4 °F 73% 30.12 in 10.0 mi South 21.9 mph - N/A   Clear
9:35 AM 8.6 °F -11.4 °F 3.2 °F 79% 30.11 in 10.0 mi South 21.9 mph 27.6 mph N/A   Clear
9:56 AM 10.4 °F -9.5 °F 3.2 °F 73% 30.11 in 10.0 mi South 23.0 mph 28.8 mph N/A   Clear
10:15 AM 10.4 °F -10.7 °F 3.2 °F 73% 30.09 in 10.0 mi South 26.5 mph 31.1 mph N/A   Clear
10:35 AM 12.2 °F -8.2 °F 3.2 °F 67% 30.08 in 10.0 mi SSW 26.5 mph 32.2 mph N/A   Clear
11:15 AM 15.8 °F -2.7 °F 5.0 °F 62% 30.05 in 10.0 mi South 24.2 mph 32.2 mph N/A   Clear
11:35 AM 15.8 °F -3.4 °F 5.0 °F 62% 30.04 in 10.0 mi South 26.5 mph 31.1 mph N/A   Clear
11:55 AM 17.6 °F -1.0 °F 6.8 °F 63% 30.02 in 10.0 mi SSW 26.5 mph 32.2 mph N/A   Clear
12:15 PM 17.6 °F -1.3 °F 6.8 °F 63% 30.01 in 10.0 mi South 27.6 mph 31.1 mph N/A   Clear
12:35 PM 19.4 °F 1.8 °F 6.8 °F 58% 29.99 in 10.0 mi South 25.3 mph 33.4 mph N/A   Clear
12:55 PM 19.4 °F 1.4 °F 5.0 °F 54% 29.99 in 10.0 mi SSW 26.5 mph 33.4 mph N/A   Clear
1:15 PM 21.2 °F 4.2 °F 5.0 °F 50% 29.96 in 10.0 mi South 25.3 mph 34.5 mph N/A   Clear
1:35 PM 21.2 °F 3.9 °F 5.0 °F 50% 29.94 in 10.0 mi South 26.5 mph 33.4 mph N/A   Clear
1:55 PM 21.2 °F 3.3 °F 5.0 °F 50% 29.92 in 10.0 mi SSW 28.8 mph 33.4 mph N/A   Clear
2:15 PM 21.2 °F 3.9 °F 5.0 °F 50% 29.91 in 10.0 mi South 26.5 mph 35.7 mph N/A   Clear
2:35 PM 21.2 °F 3.5 °F 5.0 °F 50% 29.90 in 10.0 mi SSW 27.6 mph 33.4 mph N/A   Mostly Cloudy
3:15 PM 21.2 °F 3.9 °F 5.0 °F 50% 29.85 in 10.0 mi South 26.5 mph 36.8 mph N/A   Mostly Cloudy
3:35 PM 21.2 °F 3.0 °F 5.0 °F 50% 29.83 in 10.0 mi South 29.9 mph 34.5 mph N/A   Mostly Cloudy
3:55 PM 21.2 °F 3.9 °F 6.8 °F 54% 29.84 in 10.0 mi South 26.5 mph 31.1 mph N/A   Mostly Cloudy
4:15 PM 21.2 °F 3.9 °F 6.8 °F 54% 29.80 in 10.0 mi South 26.5 mph 33.4 mph N/A   Overcast
4:35 PM 21.2 °F 3.9 °F 6.8 °F 54% 29.80 in 10.0 mi South 26.5 mph 35.7 mph N/A   Overcast
4:55 PM 21.2 °F 3.3 °F 6.8 °F 54% 29.78 in 10.0 mi South 28.8 mph 35.7 mph N/A   Overcast
5:15 PM 21.2 °F 4.2 °F 6.8 °F 54% 29.78 in 10.0 mi South 25.3 mph 32.2 mph N/A   Scattered Clouds
5:35 PM 21.2 °F 3.9 °F 6.8 °F 54% 29.78 in 10.0 mi South 26.5 mph 32.2 mph N/A   Scattered Clouds
5:55 PM 21.2 °F 3.3 °F 6.8 °F 54% 29.76 in 10.0 mi South 28.8 mph 35.7 mph N/A   Scattered Clouds
6:16 PM 21.2 °F 4.2 °F 8.6 °F 58% 29.76 in 10.0 mi South 25.3 mph 36.8 mph N/A   Clear
6:35 PM 21.2 °F 3.5 °F 8.6 °F 58% 29.76 in 10.0 mi South 27.6 mph 32.2 mph N/A   Mostly Cloudy
6:55 PM 21.2 °F 4.9 °F 8.6 °F 58% 29.77 in 10.0 mi SSW 23.0 mph 32.2 mph N/A   Mostly Cloudy
7:15 PM 21.2 °F 4.5 °F 8.6 °F 58% 29.77 in 10.0 mi SSW 24.2 mph 28.8 mph N/A   Mostly Cloudy
7:35 PM 23.0 °F 6.6 °F 8.6 °F 54% 29.76 in 10.0 mi SSW 25.3 mph 33.4 mph N/A   Overcast
7:55 PM 23.0 °F 6.3 °F 8.6 °F 54% 29.76 in 10.0 mi SSW 26.5 mph 33.4 mph N/A   Overcast
8:15 PM 23.0 °F 7.2 °F 8.6 °F 54% 29.75 in 10.0 mi SSW 23.0 mph 28.8 mph N/A   Overcast
8:35 PM 23.0 °F 7.6 °F 8.6 °F 54% 29.75 in 10.0 mi SSW 21.9 mph 31.1 mph N/A   Overcast
8:55 PM 23.0 °F 7.2 °F 8.6 °F 54% 29.76 in 10.0 mi SSW 23.0 mph 31.1 mph N/A   Overcast
9:15 PM 23.0 °F 7.6 °F 8.6 °F 54% 29.75 in 10.0 mi SSW 21.9 mph 28.8 mph N/A   Overcast
9:35 PM 23.0 °F 8.0 °F 8.6 °F 54% 29.74 in 10.0 mi SSW 20.7 mph 28.8 mph N/A   Overcast
9:55 PM 23.0 °F 8.3 °F 10.4 °F 59% 29.74 in 10.0 mi SSW 19.6 mph 25.3 mph N/A   Overcast
10:16 PM 23.0 °F 8.7 °F 10.4 °F 59% 29.75 in 10.0 mi SW 18.4 mph - N/A   Overcast
10:35 PM 23.0 °F 9.6 °F 10.4 °F 59% 29.74 in 10.0 mi SW 16.1 mph 23.0 mph N/A   Overcast
11:15 PM 23.0 °F 9.6 °F 10.4 °F 59% 29.75 in 10.0 mi SSW 16.1 mph - N/A   Overcast
11:55 PM 21.2 °F 6.8 °F 10.4 °F 63% 29.75 in 10.0 mi SSW 17.3 mph - N/A   Overcast